Ontario, OR

7:24 AM MDT on October 18, 2017 (GMT -0600)
Ontario Municipal

Weather History for KONO - February, 2014

Change the Weather History Date:

Thursday, February 27, 2014

  Actual Average Record
Temperature  
Mean Temperature 46 °F 38 °F  
Max Temperature 54 °F 49 °F 65 °F (1968)
Min Temperature 38 °F 26 °F 0 °F (1993)
Degree Days  
Heating Degree Days 19 27  
Month to date heating degree days 788 859  
Since 1 July heating degree days 4735 4602  
Cooling Degree Days 0 0  
Month to date cooling degree days 0 0  
Year to date cooling degree days 0 0  
Moisture  
Dew Point 40 °F    
Average Humidity 80    
Maximum Humidity 89    
Minimum Humidity 70    
Precipitation  
Precipitation 0.05 in 0.03 in 0.52 in (2000)
Month to date precipitation 1.28 0.77  
Year to date precipitation 1.92 1.95  
Sea Level Pressure  
Sea Level Pressure 29.71 in    
Wind  
Wind Speed 5 mph (SE)    
Max Wind Speed 12 mph    
Max Gust Speed 14 mph    
Visibility 10 miles    
Events Rain    
T = Trace of Precipitation, MM = Missing Value Source: NWS Daily Summary

Daily Weather History Graph

Daily Weather History Graph

Search for Another Location

Airport or City:

Trip Planner

Search our weather history database for the weather conditions in past years. The results will help you decide how hot, cold, wet, or windy it might be!

Date:

Astronomy

Feb. 27, 2014 Rise Set
Actual Time 7:28 AM MST 6:33 PM MST
Civil Twilight 6:59 AM MST 7:03 PM MST
Nautical Twilight 6:25 AM MST 7:36 PM MST
Astronomical Twilight 5:52 AM MST 8:09 PM MST
Moon 6:06 AM MST (2/27) 5:03 PM MST (2/27)
Length of Visible Light 12h 03m
Length of Day
11h 05m
Waning Crescent, 4% of the Moon is Illuminated
Feb 27
Waning Crescent
Mar 1
New
Mar 8
First Quarter
Mar 16
Full
Mar 23
Last Quarter

Hourly Weather History & Observations

Time (MST) Temp. Windchill Dew Point Humidity Pressure Visibility Wind Dir Wind Speed Gust Speed Precip Events Conditions
12:53 AM 39.9 °F 37.8 °F 33.1 °F 77% 29.77 in 10.0 mi West 3.5 mph - N/A   Clear
1:53 AM 39.9 °F 37.8 °F 34.0 °F 79% 29.75 in 10.0 mi WSW 3.5 mph - N/A   Scattered Clouds
2:53 AM 41.0 °F 36.4 °F 34.0 °F 76% 29.74 in 10.0 mi WSW 6.9 mph - N/A   Mostly Cloudy
3:53 AM 42.1 °F 39.2 °F 34.0 °F 73% 29.70 in 10.0 mi ENE 4.6 mph - N/A   Overcast
4:53 AM 41.0 °F 39.0 °F 35.1 °F 79% 29.67 in 10.0 mi NNE 3.5 mph - N/A   Overcast
5:53 AM 41.0 °F 37.1 °F 35.1 °F 79% 29.67 in 10.0 mi WSW 5.8 mph - N/A   Overcast
6:53 AM 41.0 °F 37.1 °F 36.0 °F 82% 29.68 in 10.0 mi SW 5.8 mph - N/A   Overcast
7:53 AM 42.1 °F 40.2 °F 36.0 °F 79% 29.70 in 10.0 mi WSW 3.5 mph - 0.00 in   Overcast
8:53 AM 42.1 °F 40.2 °F 37.9 °F 85% 29.71 in 10.0 mi East 3.5 mph - 0.00 in Rain Light Rain
9:53 AM 43.0 °F 40.3 °F 39.0 °F 86% 29.73 in 5.0 mi East 4.6 mph - 0.02 in Rain Light Rain
10:53 AM 44.1 °F 40.1 °F 41.0 °F 89% 29.73 in 8.0 mi ESE 6.9 mph - 0.02 in Rain Light Rain
11:45 AM 46.0 °F 43.1 °F 43.0 °F 89% 29.71 in 9.0 mi ESE 5.8 mph - 0.00 in   Overcast
11:53 AM 46.0 °F 43.1 °F 43.0 °F 89% 29.74 in 9.0 mi SSE 5.8 mph - 0.00 in   Overcast
12:06 PM 46.9 °F - 43.0 °F 86% 29.70 in 9.0 mi SSE 4.6 mph - N/A   Overcast
12:36 PM 48.0 °F - 43.0 °F 83% 29.70 in 10.0 mi ESE 5.8 mph - N/A   Overcast
12:53 PM 48.0 °F - 43.0 °F 83% 29.72 in 10.0 mi ESE 6.9 mph - N/A   Overcast
1:39 PM 50.0 °F - 44.1 °F 80% 29.68 in 10.0 mi ESE 6.9 mph - N/A   Mostly Cloudy
1:46 PM 50.0 °F - 44.1 °F 80% 29.68 in 10.0 mi East 5.8 mph - N/A   Overcast
1:53 PM 50.0 °F - 44.1 °F 80% 29.70 in 10.0 mi ESE 6.9 mph - N/A   Overcast
2:32 PM 51.1 °F - 44.1 °F 77% 29.68 in 10.0 mi South 6.9 mph - N/A   Overcast
2:53 PM 52.0 °F - 45.0 °F 77% 29.69 in 10.0 mi SSE 4.6 mph - N/A   Overcast
3:53 PM 54.0 °F - 45.0 °F 72% 29.67 in 10.0 mi SE 6.9 mph - N/A   Mostly Cloudy
4:53 PM 52.0 °F - 45.0 °F 77% 29.68 in 9.0 mi SW 4.6 mph - 0.00 in Rain Light Rain
5:53 PM 48.9 °F - 45.0 °F 86% 29.70 in 9.0 mi North 8.1 mph - 0.01 in Rain Light Rain
6:53 PM 46.9 °F - 44.1 °F 90% 29.73 in 10.0 mi NNW 4.6 mph - 0.00 in Rain Light Rain
7:53 PM 48.0 °F - 44.1 °F 86% 29.73 in 10.0 mi Calm Calm - 0.00 in   Mostly Cloudy
8:53 PM 46.0 °F - 43.0 °F 89% 29.74 in 10.0 mi Calm Calm - N/A   Partly Cloudy
9:53 PM 45.0 °F - 39.9 °F 82% 29.76 in 10.0 mi Calm Calm - N/A   Scattered Clouds
10:53 PM 43.0 °F - 37.9 °F 82% 29.76 in 10.0 mi Calm Calm - N/A   Mostly Cloudy
11:53 PM 42.1 °F 38.4 °F 39.0 °F 89% 29.78 in 10.0 mi SSW 5.8 mph - N/A   Overcast